Time,TemperatureF,DewpointF,PressureIn,WindDirection,WindDirectionDegrees,WindSpeedMPH,WindSpeedGustMPH,Humidity,HourlyPrecipIn,Conditions,Clouds,dailyrainin,SoftwareType,DateUTC
2013-09-06 00:01:00,72.0,0.0,30.80,NNW,337,0.0,0.0,0,0.00,,,0.00,VWS V14.01,2013-09-06 04:01:00,
2013-09-06 00:06:00,72.0,0.0,30.81,NNW,337,0.0,0.0,0,0.00,,,0.00,VWS V14.01,2013-09-06 04:06:00,
2013-09-06 00:11:00,71.0,0.0,30.81,NNW,337,0.0,0.0,0,0.00,,,0.00,VWS V14.01,2013-09-06 04:11:00,
2013-09-06 00:16:00,71.0,0.0,30.81,NNW,337,0.0,0.0,0,0.00,,,0.00,VWS V14.01,2013-09-06 04:16:00,
2013-09-06 00:21:00,71.0,0.0,30.81,NNW,337,0.0,0.0,0,0.00,,,0.00,VWS V14.01,2013-09-06 04:21:00,
2013-09-06 00:26:00,71.0,0.0,30.82,NNW,337,0.0,0.0,0,0.00,,,0.00,VWS V14.01,2013-09-06 04:26:00,
2013-09-06 00:31:00,71.0,0.0,30.82,NNW,337,0.0,0.0,0,0.00,,,0.00,VWS V14.01,2013-09-06 04:31:00,
2013-09-06 00:36:00,71.0,0.0,30.83,NNW,337,0.0,0.0,0,0.00,,,0.00,VWS V14.01,2013-09-06 04:36:00,
2013-09-06 00:41:00,71.0,0.0,30.83,NNW,337,0.0,0.0,0,0.00,,,0.00,VWS V14.01,2013-09-06 04:41:00,
2013-09-06 00:46:00,71.0,0.0,30.84,NNW,337,0.0,0.0,0,0.00,,,0.00,VWS V14.01,2013-09-06 04:46:00,
2013-09-06 00:51:00,71.0,0.0,30.84,NNW,337,0.0,0.0,0,0.00,,,0.00,VWS V14.01,2013-09-06 04:51:00,
2013-09-06 00:56:00,71.0,0.0,30.85,NNW,337,0.0,0.0,0,0.00,,,0.00,VWS V14.01,2013-09-06 04:56:00,
2013-09-06 01:01:00,71.0,0.0,30.85,NNW,337,0.0,0.0,0,0.00,,,0.00,VWS V14.01,2013-09-06 05:01:00,
2013-09-06 01:07:00,71.0,0.0,30.85,NNW,337,0.0,0.0,0,0.00,,,0.00,VWS V14.01,2013-09-06 05:07:00,
2013-09-06 01:12:00,71.0,0.0,30.85,NNW,337,0.0,0.0,0,0.00,,,0.00,VWS V14.01,2013-09-06 05:12:00,
2013-09-06 01:17:00,71.0,0.0,30.86,NNW,337,0.0,0.0,0,0.00,,,0.00,VWS V14.01,2013-09-06 05:17:00,
2013-09-06 01:22:00,71.0,0.0,30.86,NNW,337,0.0,0.0,0,0.00,,,0.00,VWS V14.01,2013-09-06 05:22:00,
2013-09-06 01:27:00,71.0,0.0,30.87,NNW,337,0.0,0.0,0,0.00,,,0.00,VWS V14.01,2013-09-06 05:27:00,
2013-09-06 01:32:00,70.0,0.0,30.87,NNW,337,0.0,0.0,0,0.00,,,0.00,VWS V14.01,2013-09-06 05:32:00,
2013-09-06 01:37:00,70.0,0.0,30.88,NNW,337,0.0,0.0,0,0.00,,,0.00,VWS V14.01,2013-09-06 05:37:00,
2013-09-06 01:42:00,70.0,0.0,30.88,WNW,292,0.0,0.0,0,0.00,,,0.00,VWS V14.01,2013-09-06 05:42:00,
2013-09-06 01:47:00,70.0,0.0,30.89,WNW,292,0.0,0.0,0,0.00,,,0.00,VWS V14.01,2013-09-06 05:47:00,
2013-09-06 01:52:00,70.0,0.0,30.89,WNW,292,0.0,0.0,0,0.00,,,0.00,VWS V14.01,2013-09-06 05:52:00,
2013-09-06 01:57:00,70.0,0.0,30.89,WNW,292,0.0,0.0,0,0.00,,,0.00,VWS V14.01,2013-09-06 05:57:00,
2013-09-06 02:02:00,70.0,0.0,30.89,WNW,292,0.0,0.0,0,0.00,,,0.00,VWS V14.01,2013-09-06 06:02:00,
2013-09-06 02:07:00,71.0,0.0,30.89,WNW,292,0.0,0.0,0,0.00,,,0.00,VWS V14.01,2013-09-06 06:07:00,
2013-09-06 02:12:00,71.0,0.0,30.89,WNW,292,0.0,0.0,0,0.00,,,0.00,VWS V14.01,2013-09-06 06:12:00,
2013-09-06 02:17:00,70.0,0.0,30.90,WNW,292,0.0,0.0,0,0.00,,,0.00,VWS V14.01,2013-09-06 06:17:00,
2013-09-06 02:22:00,70.0,0.0,30.90,WNW,292,0.0,0.0,0,0.00,,,0.00,VWS V14.01,2013-09-06 06:22:00,
2013-09-06 02:27:00,70.0,0.0,30.91,WNW,292,0.0,0.0,0,0.00,,,0.00,VWS V14.01,2013-09-06 06:27:00,
2013-09-06 02:32:00,70.0,0.0,30.91,WNW,292,0.0,0.0,0,0.00,,,0.00,VWS V14.01,2013-09-06 06:32:00,
2013-09-06 02:37:00,70.0,0.0,30.91,WNW,292,0.0,0.0,0,0.00,,,0.00,VWS V14.01,2013-09-06 06:37:00,
2013-09-06 02:42:00,70.0,0.0,30.91,WNW,292,0.0,0.0,0,0.00,,,0.00,VWS V14.01,2013-09-06 06:42:00,
2013-09-06 02:47:00,71.0,0.0,30.91,WNW,292,0.0,0.0,0,0.00,,,0.00,VWS V14.01,2013-09-06 06:47:00,
2013-09-06 02:52:00,70.0,0.0,30.91,WNW,292,0.0,0.0,0,0.00,,,0.00,VWS V14.01,2013-09-06 06:52:00,
2013-09-06 02:57:00,70.0,0.0,30.91,WNW,292,0.0,0.0,0,0.00,,,0.00,VWS V14.01,2013-09-06 06:57:00,
2013-09-06 03:02:00,71.0,0.0,30.91,WNW,292,0.0,0.0,0,0.00,,,0.00,VWS V14.01,2013-09-06 07:02:00,
2013-09-06 03:07:00,71.0,0.0,30.93,WNW,292,0.0,0.0,0,0.00,,,0.00,VWS V14.01,2013-09-06 07:07:00,
2013-09-06 03:12:00,70.0,0.0,30.93,NNW,337,0.0,3.0,0,0.00,,,0.00,VWS V14.01,2013-09-06 07:12:00,
2013-09-06 03:17:00,70.0,0.0,30.92,NNW,337,0.0,2.0,0,0.00,,,0.00,VWS V14.01,2013-09-06 07:17:00,
2013-09-06 03:22:00,71.0,0.0,30.92,NNW,337,3.0,3.0,0,0.00,,,0.00,VWS V14.01,2013-09-06 07:22:00,
2013-09-06 03:27:00,71.0,0.0,30.93,NNW,337,4.0,7.0,0,0.00,,,0.00,VWS V14.01,2013-09-06 07:27:00,
2013-09-06 03:32:00,71.0,0.0,30.93,NNW,337,8.0,9.0,0,0.00,,,0.00,VWS V14.01,2013-09-06 07:32:00,
2013-09-06 03:37:00,71.0,0.0,30.94,NNW,337,7.0,8.0,0,0.00,,,0.00,VWS V14.01,2013-09-06 07:37:00,
2013-09-06 03:42:00,71.0,0.0,30.94,North,360,7.0,10.0,0,0.00,,,0.00,VWS V14.01,2013-09-06 07:42:00,
2013-09-06 03:47:00,71.0,0.0,30.94,NNW,337,0.0,8.0,0,0.00,,,0.00,VWS V14.01,2013-09-06 07:47:00,
2013-09-06 03:52:00,71.0,0.0,30.94,NNW,337,1.0,7.0,0,0.00,,,0.00,VWS V14.01,2013-09-06 07:52:00,
2013-09-06 03:57:00,71.0,0.0,30.95,NNW,337,6.0,7.0,0,0.00,,,0.00,VWS V14.01,2013-09-06 07:57:00,
2013-09-06 04:02:00,71.0,0.0,30.95,North,360,4.0,8.0,0,0.00,,,0.00,VWS V14.01,2013-09-06 08:02:00,
2013-09-06 04:07:00,71.0,0.0,30.95,NNW,337,8.0,12.0,0,0.00,,,0.00,VWS V14.01,2013-09-06 08:07:00,
2013-09-06 04:12:00,72.0,0.0,30.95,NNW,337,5.0,10.0,0,0.00,,,0.00,VWS V14.01,2013-09-06 08:12:00,
2013-09-06 04:17:00,71.0,0.0,30.96,NNW,337,3.0,8.0,0,0.00,,,0.00,VWS V14.01,2013-09-06 08:17:00,
2013-09-06 04:22:00,71.0,0.0,30.96,NNW,337,4.0,6.0,0,0.00,,,0.00,VWS V14.01,2013-09-06 08:22:00,
2013-09-06 04:27:00,71.0,0.0,30.97,NNW,337,0.0,8.0,0,0.00,,,0.00,VWS V14.01,2013-09-06 08:27:00,
2013-09-06 04:32:00,71.0,0.0,30.97,NW,315,4.0,6.0,0,0.00,,,0.00,VWS V14.01,2013-09-06 08:32:00,
2013-09-06 04:37:00,71.0,0.0,30.96,NNW,337,0.0,4.0,0,0.00,,,0.00,VWS V14.01,2013-09-06 08:37:00,
2013-09-06 04:42:00,71.0,0.0,30.96,NW,315,0.0,4.0,0,0.00,,,0.00,VWS V14.01,2013-09-06 08:42:00,
2013-09-06 04:47:00,71.0,0.0,30.97,NNW,337,0.0,4.0,0,0.00,,,0.00,VWS V14.01,2013-09-06 08:47:00,
2013-09-06 04:52:00,71.0,0.0,30.97,North,360,0.0,3.0,0,0.00,,,0.00,VWS V14.01,2013-09-06 08:52:00,
2013-09-06 04:57:00,71.0,0.0,30.97,North,360,0.0,7.0,0,0.00,,,0.00,VWS V14.01,2013-09-06 08:57:00,
2013-09-06 05:02:00,71.0,0.0,30.97,NNW,337,0.0,1.0,0,0.00,,,0.00,VWS V14.01,2013-09-06 09:02:00,
2013-09-06 05:07:00,71.0,0.0,30.99,North,360,7.0,7.0,0,0.00,,,0.00,VWS V14.01,2013-09-06 09:07:00,
2013-09-06 05:12:00,71.0,0.0,30.99,NNW,337,0.0,10.0,0,0.00,,,0.00,VWS V14.01,2013-09-06 09:12:00,
2013-09-06 05:17:00,71.0,0.0,30.99,NNW,337,6.0,8.0,0,0.00,,,0.00,VWS V14.01,2013-09-06 09:17:00,
2013-09-06 05:22:00,71.0,0.0,30.99,NNW,337,6.0,10.0,0,0.00,,,0.00,VWS V14.01,2013-09-06 09:22:00,
2013-09-06 05:27:00,71.0,0.0,31.00,NNW,337,7.0,9.0,0,0.00,,,0.00,VWS V14.01,2013-09-06 09:27:00,
2013-09-06 05:32:00,71.0,0.0,31.00,NNW,337,9.0,12.0,0,0.00,,,0.00,VWS V14.01,2013-09-06 09:32:00,
2013-09-06 05:37:00,71.0,0.0,31.00,NNW,337,11.0,12.0,0,0.00,,,0.00,VWS V14.01,2013-09-06 09:37:00,
2013-09-06 05:42:00,71.0,0.0,31.00,NNW,337,10.0,12.0,0,0.00,,,0.00,VWS V14.01,2013-09-06 09:42:00,
2013-09-06 05:47:00,71.0,0.0,31.00,NNW,337,6.0,12.0,0,0.00,,,0.00,VWS V14.01,2013-09-06 09:47:00,
2013-09-06 05:52:00,71.0,0.0,31.00,NNW,337,4.0,12.0,0,0.00,,,0.00,VWS V14.01,2013-09-06 09:52:00,
2013-09-06 05:57:00,70.0,0.0,31.02,NW,315,6.0,12.0,0,0.00,,,0.00,VWS V14.01,2013-09-06 09:57:00,
2013-09-06 06:02:00,71.0,0.0,31.02,NNW,337,8.0,11.0,0,0.00,,,0.00,VWS V14.01,2013-09-06 10:02:00,
2013-09-06 06:07:00,70.0,0.0,31.02,NNW,337,15.0,15.0,0,0.00,,,0.00,VWS V14.01,2013-09-06 10:07:00,
2013-09-06 06:12:00,70.0,0.0,31.02,NNW,337,8.0,16.0,0,0.00,,,0.00,VWS V14.01,2013-09-06 10:12:00,
2013-09-06 06:17:00,71.0,0.0,31.03,North,360,10.0,15.0,0,0.00,,,0.00,VWS V14.01,2013-09-06 10:17:00,
2013-09-06 06:22:00,70.0,0.0,31.03,NNW,337,13.0,13.0,0,0.00,,,0.00,VWS V14.01,2013-09-06 10:22:00,
2013-09-06 06:27:00,70.0,0.0,31.04,NNW,337,7.0,16.0,0,0.00,,,0.00,VWS V14.01,2013-09-06 10:27:00,
2013-09-06 06:32:00,70.0,0.0,31.04,North,360,10.0,14.0,0,0.00,,,0.00,VWS V14.01,2013-09-06 10:32:00,
2013-09-06 06:37:00,70.0,0.0,31.05,NNE,22,12.0,13.0,0,0.00,,,0.00,VWS V14.01,2013-09-06 10:37:00,
2013-09-06 06:42:00,70.0,0.0,31.05,NNW,337,8.0,13.0,0,0.00,,,0.00,VWS V14.01,2013-09-06 10:42:00,
2013-09-06 06:47:00,70.0,0.0,31.06,North,360,10.0,14.0,0,0.00,,,0.00,VWS V14.01,2013-09-06 10:47:00,
2013-09-06 06:52:00,70.0,0.0,31.06,NW,315,10.0,15.0,0,0.00,,,0.00,VWS V14.01,2013-09-06 10:52:00,
2013-09-06 06:57:00,70.0,0.0,31.07,NNW,337,10.0,14.0,0,0.00,,,0.00,VWS V14.01,2013-09-06 10:57:00,
2013-09-06 07:02:00,70.0,0.0,31.06,NNW,337,10.0,15.0,0,0.00,,,0.00,VWS V14.01,2013-09-06 11:02:00,
2013-09-06 07:07:00,70.0,0.0,31.06,NNW,337,10.0,14.0,0,0.00,,,0.00,VWS V14.01,2013-09-06 11:07:00,
2013-09-06 07:12:00,70.0,0.0,31.03,North,360,9.0,16.0,0,0.00,,,0.00,VWS V14.01,2013-09-06 11:12:00,
2013-09-06 07:18:00,70.0,0.0,31.03,NNW,337,11.0,14.0,0,0.00,,,0.00,VWS V14.01,2013-09-06 11:18:00,
2013-09-06 07:23:00,69.0,0.0,31.00,North,360,11.0,14.0,0,0.00,,,0.00,VWS V14.01,2013-09-06 11:23:00,
2013-09-06 07:28:00,70.0,0.0,31.00,North,360,13.0,17.0,0,0.00,,,0.00,VWS V14.01,2013-09-06 11:28:00,
2013-09-06 07:33:00,70.0,0.0,30.97,NNW,337,10.0,15.0,0,0.00,,,0.00,VWS V14.01,2013-09-06 11:33:00,
2013-09-06 07:38:00,70.0,0.0,30.97,NNW,337,9.0,14.0,0,0.00,,,0.00,VWS V14.01,2013-09-06 11:38:00,
2013-09-06 07:43:00,70.0,0.0,30.94,North,360,7.0,12.0,0,0.00,,,0.00,VWS V14.01,2013-09-06 11:43:00,
2013-09-06 07:48:00,70.0,0.0,30.94,NNW,337,4.0,10.0,0,0.00,,,0.00,VWS V14.01,2013-09-06 11:48:00,
2013-09-06 07:53:00,70.0,0.0,30.92,NNE,22,7.0,10.0,0,0.00,,,0.00,VWS V14.01,2013-09-06 11:53:00,
2013-09-06 07:58:00,70.0,0.0,30.92,NNW,337,8.0,10.0,0,0.00,,,0.00,VWS V14.01,2013-09-06 11:58:00,
2013-09-06 08:03:00,71.0,0.0,30.90,NNW,337,9.0,10.0,0,0.00,,,0.00,VWS V14.01,2013-09-06 12:03:00,
2013-09-06 08:08:00,71.0,0.0,30.90,North,360,9.0,11.0,0,0.00,,,0.00,VWS V14.01,2013-09-06 12:08:00,
2013-09-06 08:13:00,71.0,0.0,30.86,NNW,337,11.0,12.0,0,0.00,,,0.00,VWS V14.01,2013-09-06 12:13:00,
2013-09-06 08:18:00,71.0,0.0,30.86,NNW,337,10.0,13.0,0,0.00,,,0.00,VWS V14.01,2013-09-06 12:18:00,
2013-09-06 08:23:00,71.0,0.0,30.84,NNW,337,9.0,13.0,0,0.00,,,0.00,VWS V14.01,2013-09-06 12:23:00,
2013-09-06 08:28:00,72.0,0.0,30.84,North,360,9.0,13.0,0,0.00,,,0.00,VWS V14.01,2013-09-06 12:28:00,
2013-09-06 08:33:00,72.0,0.0,30.81,North,360,11.0,13.0,0,0.00,,,0.00,VWS V14.01,2013-09-06 12:33:00,
2013-09-06 08:38:00,72.0,0.0,30.81,NNW,337,9.0,13.0,0,0.00,,,0.00,VWS V14.01,2013-09-06 12:38:00,
2013-09-06 08:43:00,73.0,0.0,30.78,North,360,8.0,12.0,0,0.00,,,0.00,VWS V14.01,2013-09-06 12:43:00,
2013-09-06 08:48:00,74.0,0.0,30.78,NNE,22,9.0,12.0,0,0.00,,,0.00,VWS V14.01,2013-09-06 12:48:00,
2013-09-06 08:53:00,74.0,0.0,30.76,NNE,22,10.0,11.0,0,0.00,,,0.00,VWS V14.01,2013-09-06 12:53:00,
2013-09-06 08:58:00,74.0,0.0,30.76,NNE,22,10.0,11.0,0,0.00,,,0.00,VWS V14.01,2013-09-06 12:58:00,
2013-09-06 09:03:00,74.0,0.0,30.74,NNE,22,11.0,12.0,0,0.00,,,0.00,VWS V14.01,2013-09-06 13:03:00,
2013-09-06 09:08:00,75.0,0.0,30.74,NNE,22,8.0,11.0,0,0.00,,,0.00,VWS V14.01,2013-09-06 13:08:00,
2013-09-06 09:13:00,74.0,0.0,30.74,North,360,8.0,12.0,0,0.00,,,0.00,VWS V14.01,2013-09-06 13:13:00,
2013-09-06 09:18:00,74.0,0.0,30.74,NNE,22,11.0,14.0,0,0.00,,,0.00,VWS V14.01,2013-09-06 13:18:00,
2013-09-06 09:23:00,74.0,0.0,30.74,NNE,22,9.0,11.0,0,0.00,,,0.00,VWS V14.01,2013-09-06 13:23:00,
2013-09-06 09:28:00,74.0,0.0,30.74,NE,45,0.0,11.0,0,0.00,,,0.00,VWS V14.01,2013-09-06 13:28:00,
2013-09-06 09:33:00,74.0,0.0,30.75,NNE,22,0.0,8.0,0,0.00,,,0.00,VWS V14.01,2013-09-06 13:33:00,
2013-09-06 09:38:00,75.0,0.0,30.75,North,360,4.0,7.0,0,0.00,,,0.00,VWS V14.01,2013-09-06 13:38:00,
2013-09-06 09:43:00,75.0,0.0,30.70,NNE,22,0.0,5.0,0,0.00,,,0.00,VWS V14.01,2013-09-06 13:43:00,
2013-09-06 09:48:00,75.0,0.0,30.70,NNE,22,6.0,9.0,0,0.00,,,0.00,VWS V14.01,2013-09-06 13:48:00,
2013-09-06 09:53:00,75.0,0.0,30.70,NNE,22,3.0,9.0,0,0.00,,,0.00,VWS V14.01,2013-09-06 13:53:00,
2013-09-06 09:58:00,75.0,0.0,30.70,ENE,67,0.0,6.0,0,0.00,,,0.00,VWS V14.01,2013-09-06 13:58:00,
2013-09-06 10:03:00,75.0,0.0,30.70,NE,45,4.0,12.0,0,0.00,,,0.00,VWS V14.01,2013-09-06 14:03:00,
2013-09-06 10:08:00,76.0,0.0,30.70,ENE,67,10.0,12.0,0,0.00,,,0.00,VWS V14.01,2013-09-06 14:08:00,
2013-09-06 10:13:00,76.0,0.0,30.68,ENE,67,8.0,10.0,0,0.00,,,0.00,VWS V14.01,2013-09-06 14:13:00,
2013-09-06 10:19:00,76.0,-4.5,30.68,NE,45,8.0,13.0,3,0.00,,,0.00,VWS V14.01,2013-09-06 14:19:00,
2013-09-06 10:24:00,76.0,25.1,30.67,ENE,67,11.0,13.0,15,0.00,,,0.00,VWS V14.01,2013-09-06 14:24:00,
2013-09-06 10:29:00,77.0,45.7,30.67,ENE,67,8.0,13.0,33,0.00,,,0.00,VWS V14.01,2013-09-06 14:29:00,
2013-09-06 10:34:00,77.0,54.1,30.64,ENE,67,10.0,11.0,45,0.00,,,0.00,VWS V14.01,2013-09-06 14:34:00,
2013-09-06 10:39:00,77.0,68.9,30.64,ENE,67,11.0,14.0,76,0.00,,,0.00,VWS V14.01,2013-09-06 14:39:00,
2013-09-06 10:44:00,78.0,69.8,30.63,ENE,67,11.0,15.0,76,0.00,,,0.00,VWS V14.01,2013-09-06 14:44:00,
2013-09-06 10:49:00,78.0,71.3,30.63,ENE,67,10.0,14.0,80,0.00,,,0.00,VWS V14.01,2013-09-06 14:49:00,
2013-09-06 10:54:00,78.0,69.8,30.61,NE,45,12.0,13.0,76,0.00,,,0.00,VWS V14.01,2013-09-06 14:54:00,
2013-09-06 10:59:00,78.0,71.0,30.61,NE,45,10.0,16.0,79,0.00,,,0.00,VWS V14.01,2013-09-06 14:59:00,
2013-09-06 11:04:00,78.0,69.8,30.59,ENE,67,11.0,12.0,76,0.00,,,0.00,VWS V14.01,2013-09-06 15:04:00,
2013-09-06 11:09:00,78.0,71.7,30.59,ENE,67,11.0,13.0,81,0.00,,,0.00,VWS V14.01,2013-09-06 15:09:00,
2013-09-06 11:14:00,78.0,69.8,30.57,NE,45,9.0,12.0,76,0.00,,,0.00,VWS V14.01,2013-09-06 15:14:00,
2013-09-06 11:19:00,78.0,70.6,30.57,ENE,67,10.0,14.0,78,0.00,,,0.00,VWS V14.01,2013-09-06 15:19:00,
2013-09-06 11:24:00,79.0,70.0,30.54,ENE,67,10.0,12.0,74,0.00,,,0.00,VWS V14.01,2013-09-06 15:24:00,
2013-09-06 11:29:00,79.0,72.7,30.54,NE,45,11.0,11.0,81,0.00,,,0.00,VWS V14.01,2013-09-06 15:29:00,
2013-09-06 11:34:00,79.0,69.2,30.52,ENE,67,10.0,14.0,72,0.00,,,0.00,VWS V14.01,2013-09-06 15:34:00,
2013-09-06 11:39:00,79.0,71.6,30.52,NNE,22,9.0,13.0,78,0.00,,,0.00,VWS V14.01,2013-09-06 15:39:00,
2013-09-06 11:44:00,78.0,65.7,30.50,NE,45,12.0,14.0,66,0.00,,,0.00,VWS V14.01,2013-09-06 15:44:00,
2013-09-06 11:49:00,79.0,66.7,30.50,NNE,22,11.0,14.0,66,0.00,,,0.00,VWS V14.01,2013-09-06 15:49:00,
2013-09-06 11:54:00,79.0,68.0,30.47,NE,45,8.0,15.0,69,0.00,,,0.00,VWS V14.01,2013-09-06 15:54:00,
2013-09-06 11:59:00,79.0,66.7,30.47,ENE,67,10.0,10.0,66,0.00,,,0.00,VWS V14.01,2013-09-06 15:59:00,
2013-09-06 12:04:00,79.0,56.5,30.47,NE,45,14.0,16.0,46,0.00,,,0.00,VWS V14.01,2013-09-06 16:04:00,
2013-09-06 12:09:00,79.0,59.3,30.47,NE,45,12.0,17.0,51,0.00,,,0.00,VWS V14.01,2013-09-06 16:09:00,
2013-09-06 12:14:00,79.0,60.4,30.46,ENE,67,11.0,16.0,53,0.00,,,0.00,VWS V14.01,2013-09-06 16:14:00,
2013-09-06 12:19:00,79.0,57.1,30.46,NE,45,12.0,17.0,47,0.00,,,0.00,VWS V14.01,2013-09-06 16:19:00,
2013-09-06 12:24:00,79.0,47.5,30.45,ENE,67,10.0,14.0,33,0.00,,,0.00,VWS V14.01,2013-09-06 16:24:00,
2013-09-06 12:29:00,79.0,50.5,30.45,ENE,67,10.0,12.0,37,0.00,,,0.00,VWS V14.01,2013-09-06 16:29:00,
2013-09-06 12:34:00,80.0,53.5,30.45,ENE,67,12.0,13.0,40,0.00,,,0.00,VWS V14.01,2013-09-06 16:34:00,
2013-09-06 12:39:00,80.0,20.8,30.45,ENE,67,13.0,13.0,11,0.00,,,0.00,VWS V14.01,2013-09-06 16:39:00,
2013-09-06 12:44:00,80.0,28.2,30.41,ENE,67,11.0,13.0,15,0.00,,,0.00,VWS V14.01,2013-09-06 16:44:00,
2013-09-06 12:49:00,80.0,40.0,30.41,NE,45,12.0,13.0,24,0.00,,,0.00,VWS V14.01,2013-09-06 16:49:00,
2013-09-06 12:54:00,80.0,29.8,30.41,ENE,67,10.0,17.0,16,0.00,,,0.00,VWS V14.01,2013-09-06 16:54:00,
2013-09-06 12:59:00,80.0,20.8,30.41,ENE,67,10.0,15.0,11,0.00,,,0.00,VWS V14.01,2013-09-06 16:59:00,
2013-09-06 13:04:00,80.0,20.8,30.38,ENE,67,10.0,11.0,11,0.00,,,0.00,VWS V14.01,2013-09-06 17:04:00,
2013-09-06 13:09:00,80.0,13.5,30.38,ENE,67,10.0,11.0,8,0.00,,,0.00,VWS V14.01,2013-09-06 17:09:00,
2013-09-06 13:14:00,80.0,22.9,30.37,ENE,67,11.0,14.0,12,0.00,,,0.00,VWS V14.01,2013-09-06 17:14:00,
2013-09-06 13:19:00,80.0,32.7,30.37,East,90,6.0,11.0,18,0.00,,,0.00,VWS V14.01,2013-09-06 17:19:00,
2013-09-06 13:24:00,80.0,-7.7,30.37,East,90,12.0,14.0,3,0.00,,,0.00,VWS V14.01,2013-09-06 17:24:00,
2013-09-06 13:29:00,80.0,34.1,30.37,ENE,67,9.0,14.0,19,0.00,,,0.00,VWS V14.01,2013-09-06 17:29:00,
2013-09-06 13:34:00,80.0,20.8,30.35,ENE,67,10.0,12.0,11,0.00,,,0.00,VWS V14.01,2013-09-06 17:34:00,
2013-09-06 13:39:00,80.0,7.0,30.35,ENE,67,8.0,11.0,6,0.00,,,0.00,VWS V14.01,2013-09-06 17:39:00,
2013-09-06 13:44:00,81.0,14.2,30.35,East,90,5.0,10.0,8,0.00,,,0.00,VWS V14.01,2013-09-06 17:44:00,
2013-09-06 13:49:00,80.0,0.0,30.35,ESE,112,6.0,9.0,1,0.00,,,0.00,VWS V14.01,2013-09-06 17:49:00,
2013-09-06 13:54:00,81.0,0.0,30.33,ENE,67,7.0,8.0,0,0.00,,,0.00,VWS V14.01,2013-09-06 17:54:00,
2013-09-06 13:59:00,81.0,0.0,30.33,ENE,67,8.0,10.0,0,0.00,,,0.00,VWS V14.01,2013-09-06 17:59:00,
2013-09-06 14:04:00,81.0,0.0,30.32,ENE,67,8.0,11.0,0,0.00,,,0.00,VWS V14.01,2013-09-06 18:04:00,
2013-09-06 14:09:00,81.0,0.0,30.32,ENE,67,13.0,16.0,0,0.00,,,0.00,VWS V14.01,2013-09-06 18:09:00,
2013-09-06 14:14:00,81.0,0.0,30.32,ENE,67,13.0,15.0,0,0.00,,,0.00,VWS V14.01,2013-09-06 18:14:00,
2013-09-06 14:19:00,80.0,16.2,30.32,ENE,67,13.0,16.0,9,0.00,,,0.00,VWS V14.01,2013-09-06 18:19:00,
2013-09-06 14:24:00,79.0,49.8,30.33,East,90,13.0,18.0,36,0.00,,,0.00,VWS V14.01,2013-09-06 18:24:00,
2013-09-06 14:29:00,79.0,22.1,30.33,East,90,14.0,17.0,12,0.00,,,0.00,VWS V14.01,2013-09-06 18:29:00,
2013-09-06 14:34:00,80.0,3.1,30.31,ENE,67,13.0,15.0,5,0.00,,,0.00,VWS V14.01,2013-09-06 18:34:00,
2013-09-06 14:39:00,80.0,0.0,30.31,ENE,67,9.0,14.0,0,0.00,,,0.00,VWS V14.01,2013-09-06 18:39:00,
2013-09-06 14:44:00,80.0,18.6,30.29,ENE,67,8.0,13.0,10,0.00,,,0.00,VWS V14.01,2013-09-06 18:44:00,
2013-09-06 14:49:00,80.0,44.0,30.29,East,90,8.0,12.0,28,0.00,,,0.00,VWS V14.01,2013-09-06 18:49:00,
2013-09-06 14:54:00,80.0,0.0,30.27,East,90,6.0,10.0,0,0.00,,,0.00,VWS V14.01,2013-09-06 18:54:00,
2013-09-06 14:59:00,81.0,0.0,30.27,ENE,67,6.0,12.0,0,0.00,,,0.00,VWS V14.01,2013-09-06 18:59:00,
2013-09-06 15:04:00,81.0,0.0,30.27,East,90,8.0,11.0,0,0.00,,,0.00,VWS V14.01,2013-09-06 19:04:00,
2013-09-06 15:09:00,81.0,0.0,30.27,ENE,67,10.0,10.0,0,0.00,,,0.00,VWS V14.01,2013-09-06 19:09:00,
2013-09-06 15:14:00,81.0,0.0,30.26,ESE,112,10.0,12.0,0,0.00,,,0.00,VWS V14.01,2013-09-06 19:14:00,
2013-09-06 15:19:00,80.0,0.0,30.26,ESE,112,9.0,12.0,0,0.00,,,0.00,VWS V14.01,2013-09-06 19:19:00,
2013-09-06 15:24:00,81.0,0.0,30.25,East,90,6.0,10.0,0,0.00,,,0.00,VWS V14.01,2013-09-06 19:24:00,
2013-09-06 15:29:00,81.0,0.0,30.25,ESE,112,6.0,7.0,0,0.00,,,0.00,VWS V14.01,2013-09-06 19:29:00,
2013-09-06 15:34:00,81.0,0.0,30.25,ENE,67,11.0,11.0,0,0.00,,,0.00,VWS V14.01,2013-09-06 19:34:00,
2013-09-06 15:39:00,81.0,11.2,30.25,ENE,67,9.0,11.0,7,0.00,,,0.00,VWS V14.01,2013-09-06 19:39:00,
2013-09-06 15:44:00,80.0,0.0,30.27,ENE,67,10.0,11.0,0,0.00,,,0.00,VWS V14.01,2013-09-06 19:44:00,
2013-09-06 15:49:00,80.0,-7.7,30.27,ENE,67,13.0,16.0,1,0.00,,,0.00,VWS V14.01,2013-09-06 19:49:00,
2013-09-06 15:54:00,79.0,20.0,30.27,ENE,67,15.0,16.0,11,0.00,,,0.00,VWS V14.01,2013-09-06 19:54:00,
2013-09-06 15:59:00,79.0,15.4,30.27,ENE,67,15.0,17.0,9,0.00,,,0.00,VWS V14.01,2013-09-06 19:59:00,
2013-09-06 16:04:00,75.0,36.8,30.27,ENE,67,24.0,33.0,25,0.00,,,0.00,VWS V14.01,2013-09-06 20:04:00,
2013-09-06 16:09:00,74.0,6.1,30.27,NE,45,22.0,30.0,7,0.00,,,0.00,VWS V14.01,2013-09-06 20:09:00,
2013-09-06 16:14:00,71.0,0.0,30.33,ENE,67,18.0,25.0,0,0.00,,,0.00,VWS V14.01,2013-09-06 20:14:00,
2013-09-06 16:19:00,72.0,23.4,30.33,ENE,67,16.0,25.0,16,0.00,,,0.00,VWS V14.01,2013-09-06 20:19:00,
2013-09-06 16:24:00,74.0,51.3,30.34,ESE,112,6.0,19.0,45,0.00,,,0.00,VWS V14.01,2013-09-06 20:24:00,
2013-09-06 16:29:00,75.0,0.0,30.34,East,90,12.0,19.0,0,0.00,,,0.00,VWS V14.01,2013-09-06 20:29:00,
2013-09-06 16:34:00,75.0,0.0,30.36,East,90,10.0,28.0,0,0.00,,,0.00,VWS V14.01,2013-09-06 20:34:00,
2013-09-06 17:12:00,76.0,53.8,30.41,ENE,67,11.0,15.0,46,0.00,,,0.00,VWS V14.01,2013-09-06 21:12:00,
2013-09-06 17:17:00,76.0,49.3,30.42,ENE,67,10.0,15.0,39,0.00,,,0.00,VWS V14.01,2013-09-06 21:17:00,
2013-09-06 17:22:00,76.0,46.4,30.42,ENE,67,10.0,14.0,35,0.00,,,0.00,VWS V14.01,2013-09-06 21:22:00,
2013-09-06 17:27:00,75.0,20.9,30.42,NNE,22,13.0,15.0,13,0.00,,,0.00,VWS V14.01,2013-09-06 21:27:00,
2013-09-06 17:32:00,75.0,3.4,30.42,NE,45,9.0,13.0,6,0.00,,,0.00,VWS V14.01,2013-09-06 21:32:00,
2013-09-06 17:37:00,75.0,27.3,30.43,NE,45,10.0,12.0,17,0.00,,,0.00,VWS V14.01,2013-09-06 21:37:00,
2013-09-06 17:42:00,75.0,41.5,30.43,NE,45,13.0,13.0,30,0.00,,,0.00,VWS V14.01,2013-09-06 21:42:00,
2013-09-06 17:47:00,76.0,47.2,30.44,ENE,67,10.0,13.0,36,0.00,,,0.00,VWS V14.01,2013-09-06 21:47:00,
2013-09-06 17:52:00,76.0,32.1,30.44,NNE,22,9.0,15.0,20,0.00,,,0.00,VWS V14.01,2013-09-06 21:52:00,
2013-09-06 17:57:00,76.0,33.3,30.47,ENE,67,10.0,16.0,21,0.00,,,0.00,VWS V14.01,2013-09-06 21:57:00,
2013-09-06 18:02:00,76.0,57.7,30.47,ENE,67,11.0,16.0,53,0.00,,,0.00,VWS V14.01,2013-09-06 22:02:00,
2013-09-06 18:07:00,76.0,63.8,30.49,East,90,13.0,15.0,66,0.00,,,0.00,VWS V14.01,2013-09-06 22:07:00,
2013-09-06 18:12:00,76.0,64.3,30.49,ENE,67,17.0,19.0,67,0.00,,,0.00,VWS V14.01,2013-09-06 22:12:00,
2013-09-06 18:17:00,76.0,65.9,30.51,East,90,17.0,18.0,71,0.00,,,0.00,VWS V14.01,2013-09-06 22:17:00,
2013-09-06 18:22:00,76.0,64.3,30.51,East,90,11.0,18.0,67,0.00,,,0.00,VWS V14.01,2013-09-06 22:22:00,
2013-09-06 18:27:00,76.0,66.3,30.53,East,90,19.0,19.0,72,0.00,,,0.00,VWS V14.01,2013-09-06 22:27:00,
2013-09-06 18:32:00,76.0,66.7,30.53,East,90,18.0,22.0,73,0.00,,,0.00,VWS V14.01,2013-09-06 22:32:00,
2013-09-06 18:37:00,76.0,66.7,30.55,East,90,15.0,18.0,73,0.00,,,0.00,VWS V14.01,2013-09-06 22:37:00,
2013-09-06 18:42:00,76.0,67.5,30.55,ENE,67,12.0,17.0,75,0.00,,,0.00,VWS V14.01,2013-09-06 22:42:00,
2013-09-06 18:47:00,75.0,67.7,30.57,ENE,67,10.0,18.0,78,0.00,,,0.00,VWS V14.01,2013-09-06 22:47:00,
2013-09-06 18:52:00,75.0,68.4,30.57,East,90,13.0,19.0,80,0.00,,,0.00,VWS V14.01,2013-09-06 22:52:00,
2013-09-06 18:57:00,75.0,67.3,30.61,ENE,67,13.0,17.0,77,0.00,,,0.00,VWS V14.01,2013-09-06 22:57:00,
2013-09-06 19:02:00,75.0,68.8,30.61,ENE,67,14.0,17.0,81,0.00,,,0.00,VWS V14.01,2013-09-06 23:02:00,
2013-09-06 19:07:00,75.0,69.1,30.64,ENE,67,12.0,18.0,82,0.00,,,0.00,VWS V14.01,2013-09-06 23:07:00,
2013-09-06 19:12:00,75.0,69.5,30.64,ENE,67,14.0,17.0,83,0.00,,,0.00,VWS V14.01,2013-09-06 23:12:00,
2013-09-06 19:17:00,75.0,69.8,30.66,ENE,67,12.0,19.0,84,0.00,,,0.00,VWS V14.01,2013-09-06 23:17:00,
2013-09-06 19:22:00,75.0,62.5,30.66,ENE,67,9.0,18.0,65,0.00,,,0.00,VWS V14.01,2013-09-06 23:22:00,
2013-09-06 19:27:00,75.0,55.1,30.68,ENE,67,10.0,15.0,50,0.00,,,0.00,VWS V14.01,2013-09-06 23:27:00,
2013-09-06 19:32:00,75.0,69.8,30.68,ENE,67,13.0,17.0,84,0.00,,,0.00,VWS V14.01,2013-09-06 23:32:00,
2013-09-06 19:37:00,75.0,58.3,30.71,ENE,67,14.0,16.0,56,0.00,,,0.00,VWS V14.01,2013-09-06 23:37:00,
2013-09-06 19:42:00,74.0,69.6,30.71,ENE,67,16.0,18.0,86,0.00,,,0.00,VWS V14.01,2013-09-06 23:42:00,
2013-09-06 19:47:00,74.0,61.9,30.73,ENE,67,14.0,17.0,66,0.00,,,0.00,VWS V14.01,2013-09-06 23:47:00,
2013-09-06 19:52:00,74.0,69.2,30.73,ENE,67,15.0,17.0,85,0.00,,,0.00,VWS V14.01,2013-09-06 23:52:00,
2013-09-06 19:57:00,74.0,69.6,30.75,ENE,67,16.0,19.0,86,0.00,,,0.00,VWS V14.01,2013-09-06 23:57:00,
2013-09-06 20:02:00,74.0,69.6,30.75,NE,45,15.0,19.0,86,0.00,,,0.00,VWS V14.01,2013-09-07 00:02:00,
2013-09-06 20:07:00,74.0,69.9,30.78,ENE,67,16.0,18.0,87,0.00,,,0.00,VWS V14.01,2013-09-07 00:07:00,
2013-09-06 20:12:00,74.0,69.9,30.78,ENE,67,14.0,18.0,87,0.00,,,0.00,VWS V14.01,2013-09-07 00:12:00,
2013-09-06 20:17:00,74.0,69.9,30.80,ENE,67,15.0,18.0,87,0.00,,,0.00,VWS V14.01,2013-09-07 00:17:00,
2013-09-06 20:22:00,74.0,69.9,30.80,ENE,67,13.0,18.0,87,0.00,,,0.00,VWS V14.01,2013-09-07 00:22:00,
2013-09-06 20:27:00,73.0,68.9,30.82,ENE,67,13.0,18.0,87,0.00,,,0.00,VWS V14.01,2013-09-07 00:27:00,
2013-09-06 20:32:00,73.0,69.2,30.82,ENE,67,12.0,17.0,88,0.00,,,0.00,VWS V14.01,2013-09-07 00:32:00,
2013-09-06 20:37:00,73.0,69.2,30.84,ENE,67,13.0,17.0,88,0.00,,,0.00,VWS V14.01,2013-09-07 00:37:00,
2013-09-06 20:42:00,73.0,69.6,30.84,ENE,67,17.0,19.0,89,0.00,,,0.00,VWS V14.01,2013-09-07 00:42:00,
2013-09-06 20:47:00,73.0,69.6,30.85,ENE,67,17.0,19.0,89,0.00,,,0.00,VWS V14.01,2013-09-07 00:47:00,
2013-09-06 20:52:00,73.0,69.6,30.85,ENE,67,15.0,19.0,89,0.00,,,0.00,VWS V14.01,2013-09-07 00:52:00,
2013-09-06 20:57:00,73.0,69.6,30.87,ENE,67,15.0,19.0,89,0.00,,,0.00,VWS V14.01,2013-09-07 00:57:00,
2013-09-06 21:02:00,73.0,69.9,30.87,ENE,67,16.0,18.0,90,0.00,,,0.00,VWS V14.01,2013-09-07 01:02:00,
2013-09-06 21:07:00,73.0,69.6,30.89,ENE,67,13.0,18.0,89,0.00,,,0.00,VWS V14.01,2013-09-07 01:07:00,
2013-09-06 21:12:00,73.0,69.6,30.89,ENE,67,13.0,17.0,89,0.00,,,0.00,VWS V14.01,2013-09-07 01:12:00,
2013-09-06 21:17:00,72.0,68.6,30.91,ENE,67,14.0,19.0,89,0.00,,,0.00,VWS V14.01,2013-09-07 01:17:00,
2013-09-06 21:22:00,73.0,69.9,30.91,ENE,67,14.0,19.0,90,0.00,,,0.00,VWS V14.01,2013-09-07 01:22:00,
2013-09-06 21:27:00,73.0,70.2,30.93,ENE,67,13.0,16.0,91,0.00,,,0.00,VWS V14.01,2013-09-07 01:27:00,
2013-09-06 21:32:00,72.0,67.6,30.93,NE,45,12.0,16.0,86,0.00,,,0.00,VWS V14.01,2013-09-07 01:32:00,
2013-09-06 21:37:00,72.0,67.9,30.95,ENE,67,14.0,18.0,87,0.00,,,0.00,VWS V14.01,2013-09-07 01:37:00,
2013-09-06 21:42:00,72.0,69.2,30.95,NE,45,15.0,16.0,91,0.00,,,0.00,VWS V14.01,2013-09-07 01:42:00,
2013-09-06 21:47:00,72.0,52.9,30.97,ENE,67,13.0,17.0,51,0.00,,,0.00,VWS V14.01,2013-09-07 01:47:00,
2013-09-06 21:52:00,72.0,53.4,30.97,NE,45,12.0,17.0,52,0.00,,,0.00,VWS V14.01,2013-09-07 01:52:00,
2013-09-06 21:57:00,72.0,69.6,30.98,ENE,67,13.0,16.0,92,0.00,,,0.00,VWS V14.01,2013-09-07 01:57:00,
2013-09-06 22:02:00,72.0,69.2,30.98,ENE,67,14.0,15.0,91,0.00,,,0.00,VWS V14.01,2013-09-07 02:02:00,
2013-09-06 22:07:00,72.0,69.2,31.00,ENE,67,12.0,14.0,91,0.00,,,0.00,VWS V14.01,2013-09-07 02:07:00,
2013-09-06 22:12:00,72.0,63.7,31.00,ENE,67,11.0,14.0,75,0.00,,,0.00,VWS V14.01,2013-09-07 02:12:00,
2013-09-06 22:17:00,72.0,62.9,31.01,NE,45,12.0,14.0,73,0.00,,,0.00,VWS V14.01,2013-09-07 02:17:00,
2013-09-06 22:23:00,72.0,60.9,31.01,ENE,67,12.0,17.0,68,0.00,,,0.00,VWS V14.01,2013-09-07 02:23:00,
2013-09-06 22:28:00,72.0,64.8,31.03,NE,45,12.0,15.0,78,0.00,,,0.00,VWS V14.01,2013-09-07 02:28:00,
2013-09-06 22:33:00,72.0,71.7,31.04,NE,45,10.0,14.0,99,0.00,,,0.00,VWS V14.01,2013-09-07 02:33:00,
2013-09-06 22:37:00,72.0,69.2,31.04,NE,45,11.0,13.0,91,0.00,,,0.00,VWS V14.01,2013-09-07 02:37:00,
2013-09-06 22:42:00,72.0,71.7,31.06,ENE,67,11.0,14.0,99,0.00,,,0.00,VWS V14.01,2013-09-07 02:42:00,
2013-09-06 22:47:00,72.0,70.2,31.06,ENE,67,9.0,15.0,94,0.00,,,0.00,VWS V14.01,2013-09-07 02:47:00,
2013-09-06 22:52:00,72.0,71.7,31.07,NE,45,12.0,14.0,99,0.00,,,0.00,VWS V14.01,2013-09-07 02:52:00,
2013-09-06 22:57:00,71.0,67.9,31.07,NE,45,10.0,14.0,90,0.00,,,0.00,VWS V14.01,2013-09-07 02:57:00,
2013-09-06 23:02:00,72.0,72.0,31.09,NE,45,11.0,14.0,100,0.00,,,0.00,VWS V14.01,2013-09-07 03:02:00,
2013-09-06 23:07:00,71.0,69.2,31.09,NE,45,8.0,12.0,94,0.00,,,0.00,VWS V14.01,2013-09-07 03:07:00,
2013-09-06 23:12:00,71.0,70.7,31.10,ENE,67,12.0,13.0,99,0.00,,,0.00,VWS V14.01,2013-09-07 03:12:00,
2013-09-06 23:17:00,71.0,69.2,31.10,NE,45,13.0,14.0,94,0.00,,,0.00,VWS V14.01,2013-09-07 03:17:00,
2013-09-06 23:22:00,71.0,71.0,31.11,NE,45,9.0,14.0,100,0.00,,,0.00,VWS V14.01,2013-09-07 03:22:00,
2013-09-06 23:27:00,71.0,68.9,31.11,NNE,22,7.0,13.0,93,0.00,,,0.00,VWS V14.01,2013-09-07 03:27:00,
2013-09-06 23:33:00,71.0,71.0,31.12,NE,45,11.0,13.0,100,0.00,,,0.00,VWS V14.01,2013-09-07 03:33:00,
2013-09-06 23:38:00,71.0,69.8,31.12,NNE,22,12.0,13.0,96,0.00,,,0.00,VWS V14.01,2013-09-07 03:38:00,
2013-09-06 23:42:00,71.0,71.0,31.13,NNE,22,9.0,14.0,100,0.00,,,0.00,VWS V14.01,2013-09-07 03:42:00,
2013-09-06 23:47:00,70.0,69.1,31.13,NNE,22,10.0,12.0,97,0.00,,,0.00,VWS V14.01,2013-09-07 03:47:00,
2013-09-06 23:52:00,70.0,70.0,31.15,NNE,22,10.0,13.0,100,0.00,,,0.00,VWS V14.01,2013-09-07 03:52:00,
2013-09-06 23:57:00,70.0,69.1,31.15,NNE,22,10.0,12.0,97,0.00,,,0.00,VWS V14.01,2013-09-07 03:57:00,